[[{"header":{"parameterUnit":"m.s-1","parameterCategory":1,"la1":30.2991,"la2":30.254,"lo1":-89.0895,"lo2":-89.0444,"dy":0.0017,"dx":0.0017,"nx":28,"ny":28,"refTime":"2026-01-10T09:00:00:Z","depth":0,"parameterNumber":2,"parameterNumberName":"U-component_of_WINDS"},"data":[0,0,0,0,0,0,0,0,0,0,0,0,0,0,0,0,0,0,0,0,0,0,0,0,0,0,0,0,0,0,0,0,0,0,0,0,0,0,0,0,0,0,0,0,0,0,0,0,0,0,0,0,0,0,0,0,0,0,0.2362,0.2363,0,0.2409,0.2409,0.241,0.2406,0.2406,0.2405,0.2404,0.2453,0.2455,0.2457,0,0,0,0,0,0,0,0,0,0,0,0,0,0.2272,0.2274,0.2362,0.2363,0.2364,0.2409,0.2409,0.241,0.2407,0.2406,0.2405,0.2404,0.2452,0.2455,0.2457,0,0,0,0,0,0,0,0,0,0,0,0,0,0.2314,0.2275,0.2362,0.2367,0.2368,0.2409,0.2409,0.241,0.2407,0.2406,0.2405,0.2404,0.2452,0.2455,0.2457,0.2496,0,0,0.2466,0.2468,0,0,0,0,0,0,0,0,0.2312,0.2318,0.2366,0.2367,0.2368,0.2401,0.2395,0.2439,0.2407,0.2392,0.2404,0.2403,0.2437,0.2441,0.2452,0.2499,0.2501,0.2467,0.2468,0.247,0.247,0,0,0,0,0,0,0,0.2309,0.2316,0.2381,0.2367,0.2368,0.2368,0.2373,0.2404,0.242,0.2393,0.2393,0.2399,0.2437,0.2449,0.2453,0.2501,0.2467,0.2469,0.2471,0.2472,0.2583,0.2585,0,0,0,0,0,0,0.2305,0.2313,0.2379,0.2382,0.2337,0.237,0.2376,0.2391,0.2419,0.2423,0.24,0.2398,0.2444,0.2449,0.2455,0.2503,0.247,0.2472,0.2474,0.2582,0.2584,0.2585,0,0,0,0,0,0,0.2303,0.2311,0.2377,0.2348,0.2356,0.2373,0.2391,0.2393,0.2405,0.2424,0.2427,0.2409,0.2444,0.245,0.2486,0.2504,0.2474,0.2476,0.2581,0.2583,0.2584,0.2599,0,0,0,0,0,0,0.23,0.231,0.2325,0.2348,0.2358,0.2408,0.2392,0.2394,0.241,0.2409,0.2433,0.2437,0.2444,0.2482,0.2489,0.2508,0.2479,0.2579,0.2582,0.2584,0.2597,0.2601,0.2605,0,0,0,0,0,0.2297,0.2327,0.2325,0.2333,0.2376,0.2409,0.2414,0.2422,0.2411,0.2426,0.2439,0.2436,0.2501,0.2485,0.2494,0.2514,0.2578,0.2581,0.2584,0.2595,0.26,0.2605,0,0,0,0,0,0,0.2306,0.233,0.2329,0.2367,0.2386,0.2408,0.2427,0.2427,0.2449,0.2447,0.2455,0.2461,0.2497,0.2509,0.2491,0.2553,0.2538,0.2543,0.2544,0.2549,0.2553,0.255,0.2481,0,0,0,0,0,0.2312,0.2336,0.2356,0.2388,0.2397,0.2411,0.2425,0.2429,0.2449,0.2457,0.2472,0.2492,0.2517,0.2534,0.2558,0.2598,0.2604,0.2616,0.262,0.2623,0.2627,0.2651,0.2657,0.2594,0.2594,0.2594,0,0,0.2325,0.2341,0.2356,0.239,0.2405,0.243,0.2418,0.2445,0.2464,0.2462,0.2496,0.2508,0.2531,0.2569,0.2587,0.258,0.2646,0.2627,0.2629,0.2631,0.2654,0.266,0.2665,0.2596,0.2595,0.2595,0,0,0.2362,0.2377,0.2405,0.2421,0.2444,0.2453,0.2459,0.2482,0.249,0.2525,0.2524,0.2547,0.259,0.2606,0.262,0.2664,0.2663,0.2672,0.2693,0.2715,0.272,0.2725,0.2742,0.2747,0.2676,0.2676,0.2676,0,0.2376,0.2414,0.242,0.2448,0.2463,0.2462,0.2491,0.2506,0.2536,0.2547,0.2539,0.2593,0.2608,0.2651,0.2662,0.2673,0.2682,0.267,0.2719,0.2723,0.2728,0.2744,0.275,0.2677,0.2677,0.2677,0.2677,0,0.243,0.2456,0.2477,0.2506,0.2523,0.2552,0.2563,0.258,0.2582,0.2592,0.2628,0.2646,0.2675,0.2685,0.2687,0.2729,0.2724,0.2717,0.2702,0.2735,0.275,0.2756,0.2678,0.2678,0.2678,0.2677,0,0,0.2474,0.2507,0.2514,0.2528,0.2553,0.2574,0.2603,0.263,0.2645,0.2666,0.2691,0.2727,0.2721,0.2737,0.2741,0.2761,0.2796,0.2752,0.2753,0.2761,0.2844,0.285,0.2857,0.2795,0.2796,0.2797,0.2843,0,0.2515,0.2566,0.2573,0.2618,0.2643,0.2642,0.2667,0.2686,0.2696,0.2719,0.273,0.2756,0.2746,0.2756,0.2775,0.2788,0.2814,0.2785,0.2819,0.2821,0.2815,0.2865,0.2871,0.2913,0.2849,0.285,0.285,0,0.257,0.2592,0.264,0.2663,0.2674,0.2696,0.2722,0.2744,0.2765,0.2771,0.2789,0.2791,0.2822,0.2805,0.2848,0.2828,0.2842,0.2851,0.2853,0.2857,0.2838,0.2872,0.2927,0.2933,0.286,0.2859,0.2858,0,0.2599,0.2641,0.2675,0.2686,0.2714,0.273,0.2742,0.2762,0.2779,0.2802,0.2813,0.2839,0.2853,0.2873,0.2883,0.2869,0.2925,0.2909,0.2932,0.2932,0.2944,0.2944,0.3003,0.2952,0.2951,0.2951,0.2951,0,0.2644,0.2674,0.2689,0.271,0.2743,0.2751,0.2784,0.2795,0.2814,0.2838,0.2838,0.2861,0.2871,0.2895,0.2902,0.2937,0.2943,0.295,0.2952,0.295,0.295,0.2961,0.2959,0.2953,0.2953,0.2952,0.2952,0,0.2683,0.2693,0.2731,0.2754,0.2761,0.2784,0.2804,0.2825,0.2835,0.2865,0.2873,0.2888,0.2917,0.2928,0.2963,0.2968,0.3008,0.3007,0.3001,0.3002,0.3025,0.3023,0.3094,0.3105,0.3045,0.3046,0.3046,0,0.2711,0.2734,0.276,0.2776,0.2789,0.2815,0.2831,0.284,0.2857,0.2884,0.2902,0.293,0.2954,0.3,0.3014,0.3041,0.3041,0.3065,0.3046,0.3044,0.3043,0.3042,0.3045,0.3069,0.3069,0.307,0.307,0,0.2762,0.2766,0.279,0.2817,0.2837,0.2858,0.2879,0.2892,0.2904,0.2923,0.2953,0.2971,0.3007,0.3036,0.3063,0.3076,0.3076,0.3076,0.3083,0.3083,0.3079,0.3082,0.3012,0.3074,0.3074,0.3074,0.3073,0.3073,0.2797,0.2818,0.2839,0.2867,0.2883,0.2903,0.2924,0.2936,0.2961,0.2991,0.2994,0.3026,0.3048,0.3085,0.3099,0.3124,0.3118,0.3128,0.3131,0.3133,0.3136,0.3074,0.3129,0.3129,0.3129,0.3129,0.3129,0,0.2849,0.2863,0.2888,0.2917,0.2938,0.2935,0.2958,0.2977,0.3005,0.3025,0.3048,0.3082,0.311,0.3127,0.3155,0.3172,0.3173,0.318,0.3179,0.3182,0.3139,0.3131,0.3179,0.3179,0.3179,0.3179,0.3179,0.3179,0.2878,0.2913,0.2921,0.2964,0.2978,0.301,0.3023,0.3041,0.3057,0.3096,0.3119,0.313,0.3149,0.3179,0.3204,0.3209,0.322,0.3227,0.3231,0.319,0.3185,0.318,0.3173,0.3229,0.3229,0.3272,0.3273,0.3273]},{"header":{"parameterUnit":"m.s-1","parameterCategory":1,"la1":30.2991,"la2":30.254,"lo1":-89.0895,"lo2":-89.0444,"dy":0.0017,"dx":0.0017,"nx":28,"ny":28,"refTime":"2026-01-10T09:00:00:Z","depth":0,"parameterNumber":3,"parameterNumberName":"V-component_of_WINDS"},"data":[0,0,0,0,0,0,0,0,0,0,0,0,0,0,0,0,0,0,0,0,0,0,0,0,0,0,0,0,0,0,0,0,0,0,0,0,0,0,0,0,0,0,0,0,0,0,0,0,0,0,0,0,0,0,0,0,0,0,2.2732,2.2734,0,2.2892,2.2894,2.2896,2.293,2.2928,2.2927,2.2926,2.3094,2.31,2.3105,0,0,0,0,0,0,0,0,0,0,0,0,0,2.2458,2.2463,2.2732,2.2734,2.2736,2.2892,2.2894,2.2897,2.293,2.2928,2.2927,2.2925,2.3092,2.3099,2.3106,0,0,0,0,0,0,0,0,0,0,0,0,0,2.2594,2.2464,2.2731,2.2771,2.2776,2.2892,2.2894,2.2897,2.293,2.2928,2.2926,2.2925,2.309,2.3098,2.3107,2.3195,0,0,2.3132,2.3136,0,0,0,0,0,0,0,0,2.2586,2.2604,2.2763,2.2769,2.2775,2.2889,2.2859,2.2997,2.2931,2.2872,2.2926,2.2924,2.3028,2.3041,2.3075,2.3203,2.321,2.3133,2.3138,2.3142,2.3144,0,0,0,0,0,0,0,2.2576,2.2597,2.2796,2.2766,2.2773,2.2782,2.2799,2.2886,2.2958,2.2877,2.288,2.2898,2.303,2.3067,2.3079,2.3213,2.3133,2.314,2.3145,2.3149,2.3423,2.3425,0,0,0,0,0,0,2.2559,2.2589,2.279,2.28,2.2674,2.2789,2.2808,2.2854,2.2957,2.2971,2.2899,2.2899,2.3054,2.307,2.3085,2.3198,2.3142,2.315,2.3154,2.3421,2.3423,2.3426,0,0,0,0,0,0,2.2553,2.2577,2.2784,2.2695,2.2722,2.2795,2.2847,2.2858,2.2895,2.2974,2.2988,2.2923,2.3053,2.3074,2.3168,2.3204,2.3153,2.3161,2.3418,2.3422,2.3425,2.3422,0,0,0,0,0,0,2.2545,2.2575,2.2608,2.2696,2.2727,2.2862,2.2849,2.2863,2.2909,2.291,2.3,2.3014,2.3053,2.3155,2.3176,2.3215,2.3168,2.3415,2.342,2.3424,2.3419,2.3424,2.3429,0,0,0,0,0,2.2536,2.2601,2.261,2.2634,2.277,2.2864,2.2882,2.2925,2.2912,2.2947,2.2998,2.3011,2.3196,2.3164,2.3188,2.323,2.3413,2.3418,2.3423,2.3417,2.3423,2.3429,0,0,0,0,0,0,2.2517,2.2614,2.2624,2.272,2.2783,2.287,2.2915,2.2931,2.3001,2.2999,2.305,2.307,2.3162,2.3205,2.3168,2.3322,2.3304,2.3314,2.3291,2.3298,2.3303,2.3292,2.3175,0,0,0,0,0,2.2524,2.2591,2.2672,2.2749,2.278,2.2842,2.2885,2.2912,2.2981,2.3008,2.3066,2.3133,2.3207,2.3254,2.3326,2.3424,2.3446,2.3465,2.347,2.3474,2.3483,2.354,2.3551,2.3442,2.3442,2.3442,0,0,2.2539,2.26,2.264,2.2747,2.2799,2.2869,2.2865,2.2938,2.2992,2.302,2.3113,2.3157,2.3236,2.3333,2.3378,2.3372,2.3517,2.348,2.3483,2.349,2.3547,2.3557,2.3566,2.3446,2.3445,2.3445,0,0,2.2604,2.2655,2.2726,2.2779,2.2858,2.2899,2.2915,2.3,2.303,2.3124,2.3147,2.3211,2.3336,2.3392,2.3436,2.3521,2.3537,2.3543,2.3572,2.3627,2.3635,2.3643,2.3676,2.3687,2.3551,2.3551,2.3551,0,2.2613,2.2719,2.2761,2.2834,2.2881,2.2909,2.2982,2.3031,2.313,2.3163,2.3153,2.3312,2.3366,2.3478,2.3498,2.3533,2.3555,2.3535,2.363,2.3639,2.3647,2.3679,2.3691,2.3552,2.3552,2.3552,2.3552,0,2.2728,2.28,2.2848,2.2943,2.2995,2.3067,2.3122,2.317,2.3193,2.3235,2.3331,2.3397,2.3484,2.3511,2.3535,2.3627,2.3621,2.362,2.3604,2.3657,2.3688,2.37,2.3553,2.3552,2.3552,2.3552,0,0,2.2787,2.2903,2.292,2.2964,2.3053,2.3111,2.3185,2.3269,2.3311,2.3378,2.3443,2.3548,2.3549,2.3599,2.3629,2.3677,2.3743,2.3671,2.3674,2.3684,2.3852,2.3853,2.3867,2.3753,2.3755,2.3757,2.3846,0,2.2864,2.2997,2.3037,2.3149,2.3218,2.3245,2.331,2.3373,2.3414,2.348,2.3525,2.36,2.3593,2.3625,2.3673,2.3725,2.3778,2.3718,2.3817,2.3819,2.3799,2.3883,2.3885,2.3965,2.3858,2.386,2.3862,0,2.2972,2.3041,2.316,2.3242,2.3272,2.333,2.3411,2.3472,2.3544,2.3571,2.3627,2.3652,2.3733,2.371,2.3823,2.3781,2.3824,2.3855,2.3859,2.3872,2.3846,2.3901,2.3992,2.4005,2.3881,2.3879,2.3878,0,2.3007,2.3129,2.3216,2.3252,2.3349,2.339,2.3432,2.3502,2.355,2.3621,2.3653,2.3732,2.3776,2.3837,2.3884,2.3863,2.3994,2.3974,2.4021,2.402,2.405,2.4048,2.4152,2.4072,2.4072,2.4072,2.4071,0,2.309,2.3163,2.3233,2.3287,2.3369,2.3415,2.3496,2.354,2.3602,2.3666,2.3693,2.3753,2.381,2.3878,2.3915,2.4005,2.4024,2.4049,2.4059,2.4049,2.4046,2.4079,2.4076,2.4075,2.4074,2.4073,2.4073,0,2.3144,2.3193,2.3291,2.3374,2.3397,2.3454,2.3526,2.3581,2.3622,2.3703,2.3725,2.3791,2.3873,2.3925,2.4029,2.4054,2.4152,2.4159,2.4128,2.4133,2.4178,2.4174,2.4309,2.433,2.4233,2.4234,2.4235,0,2.3195,2.3252,2.3341,2.3385,2.3428,2.3499,2.3548,2.3595,2.3645,2.3732,2.3777,2.3859,2.3929,2.4058,2.4116,2.4196,2.4207,2.4249,2.4219,2.4208,2.4211,2.4208,2.4215,2.4254,2.4255,2.4256,2.4256,0,2.3283,2.3304,2.3373,2.3452,2.3509,2.3573,2.3637,2.3672,2.373,2.3786,2.3869,2.3922,2.4028,2.4111,2.4196,2.4242,2.426,2.4265,2.428,2.4272,2.4253,2.4266,2.4144,2.4262,2.4262,2.4261,2.4261,2.4261,2.3339,2.3391,2.3462,2.3538,2.3591,2.365,2.3706,2.3754,2.3824,2.3913,2.3937,2.4024,2.4096,2.4212,2.4259,2.433,2.4325,2.4346,2.4353,2.4358,2.436,2.4239,2.4345,2.4345,2.4345,2.4345,2.4345,0,2.343,2.3477,2.3546,2.3635,2.3695,2.3704,2.3776,2.3827,2.3903,2.3968,2.4035,2.4132,2.4212,2.4276,2.436,2.4404,2.4414,2.4424,2.4423,2.4434,2.4358,2.4338,2.4415,2.4415,2.4415,2.4415,2.4415,2.4415,2.3484,2.3574,2.3604,2.372,2.3766,2.3852,2.3892,2.3948,2.4,2.4106,2.4173,2.4213,2.4279,2.4367,2.4442,2.4459,2.449,2.4499,2.4517,2.4446,2.4439,2.4432,2.4413,2.4504,2.4504,2.4588,2.4588,2.4589]}]]